Regional Weather Roundup
Issued by NWS Goodland, KS

Home | Current Version | Previous Version | Graphics & Text | Print | Product List | Glossary On
Versions: 1 2 3 4 5 6 7 8 9 10 11 12 13 14 15 16 17 18 19 20 21 22 23 24 25 26 27 28 29 30 31 32 33 34 35 36 37 38 39 40 41 42 43 44 45 46 47 48 49 50
000
ASUS43 KGLD 272108
RWRGLD

GOODLAND FORECAST AREA HOURLY WEATHER ROUNDUP
NATIONAL WEATHER SERVICE GOODLAND KS
300 PM MDT THU JUL 27 2017

...OFFICIAL OBSERVATIONS...

CITY           SKY/WX    TMP DP  RH WIND       PRES   REMARKS
GOODLAND KS    CLOUDY    81  64  56 E3        30.13F
HILL CITY KS   PTSUNNY   87  65  47 NE8       30.06F
IMPERIAL NEB   PTSUNNY   85  60  42 MISG      30.12F
MCCOOK NEB     PTSUNNY   85  60  42 VRB6      30.09F
AKRON CO       SUNNY     84  58  40 SE9G18    30.16F
BURLINGTON CO  MOSUNNY   82  64  54 E10       30.16F
LIMON CO       PTSUNNY   80  62  54 SE12      30.21F
$$

...UNOFFICIAL OBSERVATIONS...

CITY           SKY/WX    TMP DP  RH WIND       PRES   REMARKS
LENORA KS        N/A     85  32  15 MISG        N/A
NORTON KS      SUNNY     86  54  32 N9        30.07F
SHARON SPRINGS   N/A     80  65  61 CALM        N/A
TRENTON NEB      N/A     86  32  14 CALM        N/A
KIT CARSON CO    N/A     82  65  55 MISG        N/A
YUMA CO        FAIR      82  54  36 SE13G21   30.15F
$$




USA.gov is the U.S. government's official web portal to all federal, state and local government web resources and services.